+ View the NASA Portal
+ Center for Near-Earth Object Studies
IMPORTANT:
The SSD Announcement email list is now available. Major changes are coming in the near future, including possible hostname and/or URL changes. To be notified of such changes, subscribe to this email list.
Please visit
this page
for more details.
Don't show this message again
JPL Small-Body Database Browser
Search:
[
help
]
382346 (2013 TJ65)
Classification:
Main-belt Asteroid
SPK-ID:
2382346
[
Ephemeris
|
Orbit Diagram
|
Orbital Elements
|
Mission Design
|
Physical Parameters
|
Discovery Circumstances
|
Close-Approach Data
]
[ show orbit diagram ]
Orbital Elements at Epoch 2458600.5 (2019-Apr-27.0) TDB
Reference:
JPL 15
(heliocentric ecliptic J2000)
Element
Value
Uncertainty (1-sigma)
Units
e
.2150846412683481
8.3199e-08
a
2.656067427944864
4.4239e-08
au
q
2.084788118020799
2.3406e-07
au
i
4.316989954709804
1.0221e-05
deg
node
349.9812119222076
8.4101e-05
deg
peri
309.3560758209092
8.7192e-05
deg
M
156.2500227660599
1.8081e-05
deg
t
p
2457914.262163971909
(2017-Jun-09.76216397)
8.4228e-05
TDB
period
1581.091743839255
4.33
3.9501e-05
1.081e-07
d
yr
n
.2276907721533206
5.6885e-09
deg/d
Q
3.227346737868929
5.3754e-08
au
Orbit Determination Parameters
# obs. used (total)
133
data-arc span
4852 days (13.28 yr)
first obs. used
2004-08-08
last obs. used
2017-11-20
planetary ephem.
DE431
SB-pert. ephem.
SB431-N16
condition code
0
norm. resid. RMS
.57835
source
ORB
producer
Otto Matic
solution date
2019-Jul-14 15:28:27
Additional Information
Earth MOID
= 1.07177 au
Jupiter MOID
= 2.01907 au
T_jup
= 3.351
[ hide covariance matrix ]
Orbital Elements at Epoch 2457224.5 (2015-Jul-21.0) TDB
Reference:
JPL 15
(heliocentric ecliptic J2000)
Element
Value
Uncertainty (1-sigma)
Units
e
.2158458456177582
8.3379e-08
q
2.083596951990315
2.3423e-07
au
t
p
2457912.121582936570
(2017-Jun-07.62158294)
8.3826e-05
TDB
node
350.0135750245395
8.4063e-05
deg
peri
308.9520871140883
8.7127e-05
deg
i
4.319995719207806
1.0223e-05
deg
Orbit Determination Parameters
# obs. used (total)
133
data-arc span
4852 days (13.28 yr)
first obs. used
2004-08-08
last obs. used
2017-11-20
planetary ephem.
DE431
SB-pert. ephem.
SB431-N16
condition code
0
norm. resid. RMS
.57835
source
ORB
producer
Otto Matic
solution date
2019-Jul-14 15:28:27
Additional Information
Jupiter MOID
= 2.01907 au
T_jup
= 3.351
Orbit Covariance (6×6)
e
q
tp
node
peri
i
e
6.95202115464369E-15
-1.933890430867322E-14
3.92822500144481E-12
-9.963914896639911E-14
1.05846492465779E-12
-1.346206188405749E-14
q
-1.933890430867322E-14
5.486320035141411E-14
-1.145211389786656E-11
2.752186627082067E-13
-3.186652514161509E-12
3.881172628663067E-14
tp
3.92822500144481E-12
-1.145211389786656E-11
7.026804225788886E-9
-7.909598362804967E-11
1.934410266072117E-9
-1.417550844892478E-11
node
-9.963914896639911E-14
2.752186627082067E-13
-7.909598362804967E-11
7.066558628442943E-9
-7.064258798665476E-9
-2.154612138724242E-10
peri
1.05846492465779E-12
-3.186652514161509E-12
1.934410266072117E-9
-7.064258798665476E-9
7.591179719476609E-9
2.112016377938506E-10
i
-1.346206188405749E-14
3.881172628663067E-14
-1.417550844892478E-11
-2.154612138724242E-10
2.112016377938506E-10
1.045012195423633E-10
[
Ephemeris
|
Orbit Diagram
|
Orbital Elements
|
Mission Design
|
Physical Parameters
|
Discovery Circumstances
|
Close-Approach Data
]
Physical Parameter Table
Parameter
Symbol
Value
Units
Sigma
Reference
Notes
absolute magnitude
H
16.7
n/a
MPO427903
382346 (2013 TJ65)
Discovered 2004-Aug-08 by LINEAR at Socorro
Reference:
Last Updated:
2013-12-19
[ show close-approach data ]
Alternate Designations
2013 TJ65
= 2004 PB74
[
Ephemeris
|
Orbit Diagram
|
Orbital Elements
|
Mission Design
|
Physical Parameters
|
Discovery Circumstances
|
Close-Approach Data
]
2019-Dec-07 04:22 UT
(server date/time)
Site Manager:
Ryan S. Park
Webmaster
:
Alan B. Chamberlin